Simultaneous Nadir Overpasses (SNOs) Predictions

Prediction of SNOs between NOAA-19 and NPP Satellite Orbit:

Table of predicted SNOs for the next 14.0 days since TLE Epoch: 2/8/2014
Index Date (NOAA-19) Time (NOAA-19) Lat,Lon (NOAA-19) SZA (NOAA-19 ) Date (NPP) Time (NPP) Lat,Lon (NPP) SZA (NPP ) Distance(km) Time Diff (sec)
1 02/20/2014 21:33:40 81.00, 162.56 95.75 02/20/2014 21:34:45 80.99, 162.73 95.69 2.98 65
2 02/20/2014 22:24:41 -80.98, -29.77 84.33 02/20/2014 22:25:30 -80.99, -29.89 84.34 2.12 49
3 02/20/2014 23:15:42 80.98, 137.78 95.62 02/20/2014 23:16:14 80.98, 137.71 95.61 1.12 32
4 02/21/2014 00:06:44 -80.98, -54.93 84.41 02/21/2014 00:06:59 -80.97, -54.91 84.42 0.33 15
5 02/21/2014 00:57:46 80.98, 112.24 95.60 02/21/2014 00:57:44 80.98, 112.33 95.59 1.45 2
6 02/21/2014
